This demonstration page uses our WeatherBlox Daily Observations layout. Learn more.

39.92423, -83.80882

Hourly Observations for May 14, 2019

Temp ( °F °C ) Dew Point ( °F °C ) Humidity (%) Winds ( mph kmh ) Pressure ( in mb ) Visibility ( mi km ) Precip ( " mm )
1:56 am 01:56 Clear 43 6.1 43 6.1 100 100 W 7 11 29.99 1016 10 16.0934 0 0
2:56 am 02:56 Clear 43 6.1 43 6.1 100 100 W 7 11 29.99 1016 10 16.0934 0 0
3:56 am 03:56 Clear 42 5.6 42 5.6 100 100 W 7 11 30 1016 10 16.0934 0 0
5:56 am 05:56 Clear 43 6.1 43 6.1 100 100 WNW 8 13 30.02 1017 10 16.0934 0 0
6:56 am 06:56 Sunny 43 6.1 43 6.1 100 100 WNW 8 13 30.04 1017 10 16.0934 0 0
7:56 am 07:56 Sunny 47 8.3 44 6.7 90 90 WNW 8 13 30.06 1018 10 16.0934 0 0
8:56 am 08:56 Sunny 50 10 44 6.7 80 80 WNW 9 15 30.07 1018 10 16.0934 0 0
9:56 am 09:56 Sunny 54 12.2 45 7.2 72 72 WNW 8 13 30.07 1018 10 16.0934 0 0
10:56 am 10:56 Sunny 57 13.9 43 6.1 60 60 WNW 12 19 30.07 1018 10 16.0934 0 0
11:56 am 11:56 Sunny 60 15.6 44 6.7 56 56 NNW 10 17 30.07 1018 10 16.0934 0 0
12:56 pm 12:56 Partly Cloudy 61 16.1 42 5.6 50 50 NW 12 19 30.08 1019 10 16.0934 0 0
1:56 pm 13:56 Mostly Cloudy 63 17.2 42 5.6 47 47 VRB 5 7 30.06 1018 10 16.0934 0 0
2:56 pm 14:56 Mostly Sunny 62 16.7 40 4.4 44 44 NNW 9 15 30.05 1018 10 16.0934 0 0
3:56 pm 15:56 Partly Cloudy 65 18.3 43 6.1 45 45 NW 9 15 30.04 1017 10 16.0934 0 0
4:56 pm 16:56 Cloudy 65 18.3 42 5.6 43 43 NW 6 9 30.03 1017 10 16.0934 0 0
5:56 pm 17:56 Partly Cloudy 65 18.3 41 5 42 42 N 9 15 30.02 1017 10 16.0934 0 0
6:56 pm 18:56 Sunny 64 17.8 39 3.9 40 40 NNW 5 7 30.02 1017 10 16.0934 0 0
7:56 pm 19:56 Sunny 61 16.1 40 4.4 46 46 NNW 5 7 30.02 1017 10 16.0934 0 0
8:56 pm 20:56 Clear 59 15 37 2.8 44 44 Calm 30.02 1017 10 16.0934 0 0
9:56 pm 21:56 Clear 53 11.7 44 6.7 72 72 Calm 30.03 1017 10 16.0934 0 0
10:56 pm 22:56 Mostly Clear 49 9.4 45 7.2 86 86 Calm 30.05 1018 10 16.0934 0 0
11:56 pm 23:56 Mostly Clear 47 8.3 44 6.7 90 90 ESE 3 6 30.04 1017 10 16.0934 0 0

Powered by AerisWeather